Time,TemperatureF,DewpointF,PressureIn,WindDirection,WindDirectionDegrees,WindSpeedMPH,WindSpeedGustMPH,Humidity,HourlyPrecipIn,Conditions,Clouds,dailyrainin,SoftwareType,DateUTC
2013-06-02 00:03:00,75.0,-99.9,30.01,SSE,158,1.0,3.0,91,-99.99,,,-99.99,,2013-06-02 04:03:00,
2013-06-02 00:13:00,74.0,72.0,30.01,SSE,153,2.0,3.0,91,-99.99,,,-99.99,,2013-06-02 04:13:00,
2013-06-02 00:23:00,74.0,72.0,30.01,SSE,153,2.0,3.0,91,-99.99,,,-99.99,,2013-06-02 04:23:00,
2013-06-02 00:33:00,73.0,71.0,30.01,West,270,2.0,3.0,91,-99.99,,,-99.99,,2013-06-02 04:33:00,
2013-06-02 00:42:00,73.0,71.0,30.01,West,270,2.0,3.0,91,-99.99,,,-99.99,,2013-06-02 04:42:00,
2013-06-02 00:53:00,74.0,71.0,30.00,WSW,256,2.0,4.0,91,-99.99,,,-99.99,,2013-06-02 04:53:00,
2013-06-02 01:03:00,73.0,71.0,29.99,SW,227,1.0,2.0,91,-99.99,,,-99.99,,2013-06-02 05:03:00,
2013-06-02 01:12:00,73.0,71.0,29.99,SW,227,1.0,2.0,91,-99.99,,,-99.99,,2013-06-02 05:12:00,
2013-06-02 01:22:00,73.0,71.0,29.99,SW,227,1.0,2.0,91,-99.99,,,-99.99,,2013-06-02 05:22:00,
2013-06-02 01:32:00,74.0,71.0,29.99,SSE,163,2.0,4.0,92,-99.99,,,-99.99,,2013-06-02 05:32:00,
2013-06-02 01:42:00,74.0,71.0,29.99,SSE,163,2.0,4.0,92,-99.99,,,-99.99,,2013-06-02 05:42:00,
2013-06-02 01:52:00,74.0,72.0,29.99,WSW,252,2.0,3.0,93,-99.99,,,-99.99,,2013-06-02 05:52:00,
2013-06-02 02:01:00,73.0,71.0,29.99,WSW,241,1.0,2.0,93,-99.99,,,-99.99,,2013-06-02 06:01:00,
2013-06-02 02:12:00,73.0,71.0,29.99,WSW,241,1.0,2.0,93,-99.99,,,-99.99,,2013-06-02 06:12:00,
2013-06-02 02:21:00,73.0,71.0,29.99,WSW,241,1.0,2.0,93,-99.99,,,-99.99,,2013-06-02 06:21:00,
2013-06-02 02:32:00,73.0,71.0,29.97,ESE,106,2.0,3.0,94,-99.99,,,-99.99,,2013-06-02 06:32:00,
2013-06-02 02:42:00,73.0,71.0,29.97,ESE,106,2.0,3.0,94,-99.99,,,-99.99,,2013-06-02 06:42:00,
2013-06-02 02:52:00,73.0,71.0,29.97,ENE,77,1.0,3.0,94,-99.99,,,-99.99,,2013-06-02 06:52:00,
2013-06-02 03:02:00,73.0,71.0,29.96,NE,36,2.0,3.0,94,-99.99,,,-99.99,,2013-06-02 07:02:00,
2013-06-02 03:11:00,73.0,71.0,29.96,NE,36,2.0,3.0,94,-99.99,,,-99.99,,2013-06-02 07:11:00,
2013-06-02 03:22:00,73.0,71.0,29.96,NE,36,2.0,3.0,94,-99.99,,,-99.99,,2013-06-02 07:22:00,
2013-06-02 03:32:00,73.0,71.0,29.96,East,81,2.0,4.0,94,-99.99,,,-99.99,,2013-06-02 07:32:00,
2013-06-02 03:42:00,73.0,71.0,29.96,East,81,2.0,4.0,94,-99.99,,,-99.99,,2013-06-02 07:42:00,
2013-06-02 03:52:00,73.0,71.0,29.96,East,91,2.0,4.0,94,-99.99,,,-99.99,,2013-06-02 07:52:00,
2013-06-02 04:02:00,73.0,71.0,29.96,SSW,202,1.0,2.0,93,-99.99,,,-99.99,,2013-06-02 08:02:00,
2013-06-02 04:12:00,73.0,71.0,29.96,SSW,202,1.0,2.0,93,-99.99,,,-99.99,,2013-06-02 08:12:00,
2013-06-02 04:22:00,73.0,71.0,29.96,SSW,202,1.0,2.0,93,-99.99,,,-99.99,,2013-06-02 08:22:00,
2013-06-02 04:32:00,73.0,71.0,29.95,South,189,1.0,2.0,94,-99.99,,,-99.99,,2013-06-02 08:32:00,
2013-06-02 04:42:00,73.0,71.0,29.95,South,189,1.0,2.0,94,-99.99,,,-99.99,,2013-06-02 08:42:00,
2013-06-02 04:52:00,73.0,71.0,29.95,SSW,194,1.0,1.0,94,-99.99,,,-99.99,,2013-06-02 08:52:00,
2013-06-02 05:01:00,73.0,71.0,29.95,South,190,1.0,2.0,95,-99.99,,,-99.99,,2013-06-02 09:01:00,
2013-06-02 05:11:00,73.0,71.0,29.95,South,190,1.0,2.0,95,-99.99,,,-99.99,,2013-06-02 09:11:00,
2013-06-02 05:21:00,73.0,71.0,29.95,South,190,1.0,2.0,95,-99.99,,,-99.99,,2013-06-02 09:21:00,
2013-06-02 05:33:00,73.0,71.0,29.95,SE,137,3.0,6.0,94,-99.99,,,-99.99,,2013-06-02 09:33:00,
2013-06-02 05:43:00,73.0,71.0,29.95,SE,137,3.0,6.0,94,-99.99,,,-99.99,,2013-06-02 09:43:00,
2013-06-02 05:53:00,72.0,71.0,29.96,NE,35,1.0,3.0,95,-99.99,,,-99.99,,2013-06-02 09:53:00,
2013-06-02 06:02:00,72.0,71.0,29.96,SSE,150,1.0,1.0,95,-99.99,,,-99.99,,2013-06-02 10:02:00,
2013-06-02 06:12:00,72.0,71.0,29.96,SSE,150,1.0,1.0,95,-99.99,,,-99.99,,2013-06-02 10:12:00,
2013-06-02 06:23:00,72.0,71.0,29.96,SSE,150,1.0,1.0,95,-99.99,,,-99.99,,2013-06-02 10:23:00,
2013-06-02 06:33:00,72.0,71.0,29.96,WSW,257,1.0,3.0,95,-99.99,,,-99.99,,2013-06-02 10:33:00,
2013-06-02 06:42:00,72.0,71.0,29.96,WSW,257,1.0,3.0,95,-99.99,,,-99.99,,2013-06-02 10:42:00,
2013-06-02 06:52:00,72.0,71.0,29.97,West,265,2.0,3.0,96,-99.99,,,-99.99,,2013-06-02 10:52:00,
2013-06-02 07:02:00,72.0,71.0,29.97,West,265,2.0,3.0,96,-99.99,,,-99.99,,2013-06-02 11:02:00,
2013-06-02 07:12:00,72.0,71.0,29.97,WSW,240,1.0,3.0,96,-99.99,,,-99.99,,2013-06-02 11:12:00,
2013-06-02 07:22:00,72.0,71.0,29.97,WSW,240,1.0,3.0,96,-99.99,,,-99.99,,2013-06-02 11:22:00,
2013-06-02 07:32:00,72.0,71.0,29.98,WNW,290,1.0,3.0,95,-99.99,,,-99.99,,2013-06-02 11:32:00,
2013-06-02 07:42:00,72.0,71.0,29.98,WNW,290,1.0,3.0,95,-99.99,,,-99.99,,2013-06-02 11:42:00,
2013-06-02 07:52:00,73.0,72.0,29.99,WNW,298,2.0,4.0,95,-99.99,,,-99.99,,2013-06-02 11:52:00,
2013-06-02 08:02:00,73.0,72.0,29.99,WNW,298,2.0,4.0,95,-99.99,,,-99.99,,2013-06-02 12:02:00,
2013-06-02 08:11:00,75.0,72.0,30.00,WNW,294,2.0,4.0,92,-99.99,,,-99.99,,2013-06-02 12:11:00,
2013-06-02 08:22:00,75.0,72.0,30.00,WNW,294,2.0,4.0,92,-99.99,,,-99.99,,2013-06-02 12:22:00,
2013-06-02 08:32:00,77.0,71.0,29.99,WSW,255,1.0,3.0,80,-99.99,,,-99.99,,2013-06-02 12:32:00,
2013-06-02 08:42:00,77.0,71.0,29.99,WSW,255,1.0,3.0,80,-99.99,,,-99.99,,2013-06-02 12:42:00,
2013-06-02 08:53:00,79.0,72.0,29.99,SSW,204,1.0,3.0,79,-99.99,,,-99.99,,2013-06-02 12:53:00,
2013-06-02 09:01:00,80.0,73.0,29.99,SE,146,2.0,5.0,79,-99.99,,,-99.99,,2013-06-02 13:01:00,
2013-06-02 09:12:00,80.0,73.0,29.99,SE,146,2.0,5.0,79,-99.99,,,-99.99,,2013-06-02 13:12:00,
2013-06-02 09:22:00,80.0,73.0,29.99,SE,146,2.0,5.0,79,-99.99,,,-99.99,,2013-06-02 13:22:00,
2013-06-02 09:32:00,81.0,74.0,29.99,South,176,2.0,7.0,76,-99.99,,,-99.99,,2013-06-02 13:32:00,
2013-06-02 09:42:00,81.0,74.0,29.99,South,176,2.0,7.0,76,-99.99,,,-99.99,,2013-06-02 13:42:00,
2013-06-02 09:52:00,81.0,72.0,29.99,SSW,192,2.0,7.0,74,-99.99,,,-99.99,,2013-06-02 13:52:00,
2013-06-02 10:02:00,80.0,71.0,29.99,South,170,3.0,7.0,74,-99.99,,,-99.99,,2013-06-02 14:02:00,
2013-06-02 10:11:00,80.0,71.0,29.99,South,170,3.0,7.0,74,-99.99,,,-99.99,,2013-06-02 14:11:00,
2013-06-02 10:22:00,80.0,71.0,29.99,South,170,3.0,7.0,74,-99.99,,,-99.99,,2013-06-02 14:22:00,
2013-06-02 10:32:00,81.0,73.0,29.99,South,171,1.0,4.0,77,-99.99,,,-99.99,,2013-06-02 14:32:00,
2013-06-02 10:42:00,81.0,73.0,29.99,South,171,1.0,4.0,77,-99.99,,,-99.99,,2013-06-02 14:42:00,
2013-06-02 10:52:00,81.0,73.0,29.99,South,175,2.0,5.0,76,-99.99,,,-99.99,,2013-06-02 14:52:00,
2013-06-02 11:01:00,82.0,72.0,29.99,South,172,4.0,9.0,71,-99.99,,,-99.99,,2013-06-02 15:01:00,
2013-06-02 11:11:00,82.0,72.0,29.99,South,172,4.0,9.0,71,-99.99,,,-99.99,,2013-06-02 15:11:00,
2013-06-02 11:22:00,82.0,72.0,29.99,South,172,4.0,9.0,71,-99.99,,,-99.99,,2013-06-02 15:22:00,
2013-06-02 11:33:00,81.0,72.0,29.99,SE,143,9.0,13.0,74,-99.99,,,-99.99,,2013-06-02 15:33:00,
2013-06-02 11:43:00,81.0,72.0,29.99,SE,143,9.0,13.0,74,-99.99,,,-99.99,,2013-06-02 15:43:00,
2013-06-02 11:53:00,81.0,74.0,29.98,SE,146,10.0,16.0,77,-99.99,,,-99.99,,2013-06-02 15:53:00,
2013-06-02 12:03:00,81.0,74.0,29.98,SE,146,10.0,16.0,77,-99.99,,,-99.99,,2013-06-02 16:03:00,
2013-06-02 12:13:00,81.0,74.0,29.98,SE,146,10.0,16.0,77,-99.99,,,-99.99,,2013-06-02 16:13:00,
2013-06-02 12:23:00,81.0,74.0,29.98,SE,146,10.0,16.0,77,-99.99,,,-99.99,,2013-06-02 16:23:00,
2013-06-02 12:33:00,83.0,73.0,29.98,SE,143,9.0,13.0,73,-99.99,,,-99.99,,2013-06-02 16:33:00,
2013-06-02 12:42:00,82.0,72.0,29.98,SE,143,8.0,13.0,70,-99.99,,,-99.99,,2013-06-02 16:42:00,
2013-06-02 12:53:00,82.0,72.0,29.97,SE,142,8.0,12.0,69,-99.99,,,-99.99,,2013-06-02 16:53:00,
2013-06-02 13:02:00,82.0,72.0,29.97,SE,142,8.0,12.0,69,-99.99,,,-99.99,,2013-06-02 17:02:00,
2013-06-02 13:12:00,82.0,71.0,29.97,SE,133,9.0,11.0,67,-99.99,,,-99.99,,2013-06-02 17:12:00,
2013-06-02 13:23:00,82.0,71.0,29.97,SE,133,9.0,11.0,67,-99.99,,,-99.99,,2013-06-02 17:23:00,
2013-06-02 13:32:00,82.0,72.0,29.97,SE,138,10.0,15.0,70,-99.99,,,-99.99,,2013-06-02 17:32:00,
2013-06-02 13:42:00,82.0,71.0,29.97,SE,146,10.0,13.0,68,-99.99,,,-99.99,,2013-06-02 17:42:00,
2013-06-02 13:52:00,83.0,71.0,29.96,SE,141,10.0,14.0,67,-99.99,,,-99.99,,2013-06-02 17:52:00,
2013-06-02 14:02:00,83.0,71.0,29.96,SE,141,10.0,14.0,67,-99.99,,,-99.99,,2013-06-02 18:02:00,
2013-06-02 14:11:00,82.0,70.0,29.96,SE,137,11.0,17.0,65,-99.99,,,-99.99,,2013-06-02 18:11:00,
2013-06-02 14:21:00,82.0,70.0,29.96,SE,137,11.0,17.0,65,-99.99,,,-99.99,,2013-06-02 18:21:00,
2013-06-02 14:32:00,83.0,73.0,29.95,SSE,147,10.0,17.0,71,-99.99,,,-99.99,,2013-06-02 18:32:00,
2013-06-02 14:42:00,83.0,73.0,29.95,SSE,147,10.0,17.0,71,-99.99,,,-99.99,,2013-06-02 18:42:00,
2013-06-02 14:52:00,82.0,72.0,29.95,SE,145,11.0,19.0,70,-99.99,,,-99.99,,2013-06-02 18:52:00,
2013-06-02 15:02:00,82.0,72.0,29.95,SE,145,11.0,19.0,70,-99.99,,,-99.99,,2013-06-02 19:02:00,
2013-06-02 15:11:00,82.0,72.0,29.95,SE,145,11.0,19.0,70,-99.99,,,-99.99,,2013-06-02 19:11:00,
2013-06-02 15:22:00,83.0,73.0,29.94,SSE,154,11.0,18.0,70,-99.99,,,-99.99,,2013-06-02 19:22:00,
2013-06-02 15:32:00,83.0,73.0,29.94,SSE,161,13.0,21.0,70,-99.99,,,-99.99,,2013-06-02 19:32:00,
2013-06-02 15:42:00,83.0,73.0,29.94,SSE,161,13.0,21.0,70,-99.99,,,-99.99,,2013-06-02 19:42:00,
2013-06-02 15:52:00,82.0,72.0,29.94,SSE,164,14.0,22.0,71,-99.99,,,-99.99,,2013-06-02 19:52:00,
2013-06-02 16:02:00,82.0,72.0,29.94,SSE,164,14.0,22.0,71,-99.99,,,-99.99,,2013-06-02 20:02:00,
2013-06-02 16:11:00,82.0,72.0,29.94,SSE,163,14.0,24.0,71,-99.99,,,-99.99,,2013-06-02 20:11:00,
2013-06-02 16:22:00,82.0,72.0,29.94,SSE,163,14.0,24.0,71,-99.99,,,-99.99,,2013-06-02 20:22:00,
2013-06-02 16:32:00,82.0,71.0,29.93,South,169,12.0,20.0,69,-99.99,,,-99.99,,2013-06-02 20:32:00,
2013-06-02 16:42:00,82.0,72.0,29.93,South,171,10.0,16.0,69,-99.99,,,-99.99,,2013-06-02 20:42:00,
2013-06-02 16:52:00,83.0,72.0,29.93,SSE,162,8.0,12.0,69,-99.99,,,-99.99,,2013-06-02 20:52:00,
2013-06-02 17:02:00,83.0,72.0,29.93,SSE,162,8.0,12.0,69,-99.99,,,-99.99,,2013-06-02 21:02:00,
2013-06-02 17:12:00,82.0,72.0,29.93,South,184,3.0,13.0,69,-99.99,,,-99.99,,2013-06-02 21:12:00,
2013-06-02 17:22:00,82.0,72.0,29.93,South,184,3.0,13.0,69,-99.99,,,-99.99,,2013-06-02 21:22:00,
2013-06-02 17:33:00,82.0,71.0,29.92,SSE,168,4.0,8.0,68,-99.99,,,-99.99,,2013-06-02 21:33:00,
2013-06-02 17:42:00,82.0,71.0,29.92,SSE,168,4.0,8.0,68,-99.99,,,-99.99,,2013-06-02 21:42:00,
2013-06-02 17:53:00,82.0,71.0,29.93,South,187,1.0,6.0,69,-99.99,,,-99.99,,2013-06-02 21:53:00,
2013-06-02 18:03:00,82.0,71.0,29.93,South,187,1.0,6.0,69,-99.99,,,-99.99,,2013-06-02 22:03:00,
2013-06-02 18:12:00,82.0,71.0,29.93,South,180,3.0,7.0,68,-99.99,,,-99.99,,2013-06-02 22:12:00,
2013-06-02 18:23:00,82.0,71.0,29.93,South,180,3.0,7.0,68,-99.99,,,-99.99,,2013-06-02 22:23:00,
2013-06-02 18:33:00,81.0,70.0,29.93,SSE,168,5.0,7.0,70,-99.99,,,-99.99,,2013-06-02 22:33:00,
2013-06-02 18:42:00,81.0,70.0,29.93,SSE,168,5.0,7.0,70,-99.99,,,-99.99,,2013-06-02 22:42:00,
2013-06-02 18:53:00,80.0,71.0,29.93,SSE,162,4.0,7.0,72,-99.99,,,-99.99,,2013-06-02 22:53:00,
2013-06-02 19:02:00,80.0,71.0,29.93,SSE,162,4.0,7.0,72,-99.99,,,-99.99,,2013-06-02 23:02:00,
2013-06-02 19:12:00,81.0,72.0,29.93,SSE,163,5.0,8.0,73,-99.99,,,-99.99,,2013-06-02 23:12:00,
2013-06-02 19:22:00,81.0,72.0,29.93,SSE,163,5.0,8.0,73,-99.99,,,-99.99,,2013-06-02 23:22:00,
2013-06-02 19:32:00,80.0,73.0,29.93,SSE,162,5.0,9.0,78,-99.99,,,-99.99,,2013-06-02 23:32:00,
2013-06-02 19:42:00,80.0,73.0,29.93,SSE,162,5.0,9.0,78,-99.99,,,-99.99,,2013-06-02 23:42:00,
2013-06-02 19:53:00,80.0,73.0,29.93,SSE,162,5.0,9.0,78,-99.99,,,-99.99,,2013-06-02 23:53:00,
2013-06-02 20:01:00,80.0,73.0,29.94,South,170,6.0,9.0,78,-99.99,,,-99.99,,2013-06-03 00:01:00,
2013-06-02 20:12:00,80.0,72.0,29.94,SW,227,7.0,19.0,75,-99.99,,,-99.99,,2013-06-03 00:12:00,
2013-06-02 20:22:00,80.0,72.0,29.94,SW,227,7.0,19.0,75,-99.99,,,-99.99,,2013-06-03 00:22:00,
2013-06-02 20:32:00,78.0,70.0,29.94,WSW,254,9.0,23.0,77,-99.99,,,-99.99,,2013-06-03 00:32:00,
2013-06-02 20:42:00,76.0,72.0,29.94,WSW,257,4.0,9.0,85,-99.99,,,-99.99,,2013-06-03 00:42:00,
2013-06-02 20:52:00,76.0,72.0,29.94,WNW,290,4.0,9.0,87,-99.99,,,-99.99,,2013-06-03 00:52:00,
2013-06-02 21:01:00,76.0,72.0,29.94,WNW,290,4.0,9.0,87,-99.99,,,-99.99,,2013-06-03 01:01:00,
2013-06-02 21:11:00,76.0,72.0,29.94,WNW,287,3.0,5.0,87,-99.99,,,-99.99,,2013-06-03 01:11:00,
2013-06-02 21:21:00,76.0,72.0,29.94,WNW,287,3.0,5.0,87,-99.99,,,-99.99,,2013-06-03 01:21:00,
2013-06-02 21:32:00,76.0,72.0,29.95,WNW,303,3.0,6.0,86,-99.99,,,-99.99,,2013-06-03 01:32:00,
2013-06-02 21:42:00,76.0,72.0,29.96,West,275,4.0,6.0,87,-99.99,,,-99.99,,2013-06-03 01:42:00,
2013-06-02 21:52:00,76.0,73.0,29.96,WNW,303,4.0,7.0,88,-99.99,,,-99.99,,2013-06-03 01:52:00,
2013-06-02 22:02:00,76.0,73.0,29.96,WNW,303,4.0,7.0,88,-99.99,,,-99.99,,2013-06-03 02:02:00,
2013-06-02 22:12:00,77.0,73.0,29.96,WNW,287,2.0,4.0,88,-99.99,,,-99.99,,2013-06-03 02:12:00,
2013-06-02 22:22:00,77.0,73.0,29.96,WNW,287,2.0,4.0,88,-99.99,,,-99.99,,2013-06-03 02:22:00,
2013-06-02 22:32:00,76.0,73.0,29.97,West,262,2.0,6.0,88,-99.99,,,-99.99,,2013-06-03 02:32:00,
2013-06-02 22:42:00,76.0,73.0,29.97,SSE,164,1.0,3.0,88,-99.99,,,-99.99,,2013-06-03 02:42:00,
2013-06-02 22:52:00,76.0,72.0,29.97,South,178,2.0,4.0,89,-99.99,,,-99.99,,2013-06-03 02:52:00,
2013-06-02 23:02:00,76.0,72.0,29.97,South,178,2.0,4.0,89,-99.99,,,-99.99,,2013-06-03 03:02:00,
2013-06-02 23:12:00,75.0,71.0,29.98,SSE,164,2.0,4.0,88,-99.99,,,-99.99,,2013-06-03 03:12:00,
2013-06-02 23:22:00,75.0,71.0,29.98,SSE,164,2.0,4.0,88,-99.99,,,-99.99,,2013-06-03 03:22:00,
2013-06-02 23:33:00,75.0,71.0,29.99,NE,55,1.0,3.0,88,-99.99,,,-99.99,,2013-06-03 03:33:00,
2013-06-02 23:43:00,75.0,71.0,29.99,ENE,69,1.0,2.0,87,-99.99,,,-99.99,,2013-06-03 03:43:00,
2013-06-02 23:53:00,75.0,71.0,29.98,South,169,2.0,3.0,88,-99.99,,,-99.99,,2013-06-03 03:53:00,